Overview Statistics Trail Chart Weather Telemetry Raw packets
 

This is the latest recevied weather packets stored in our database for station/object N5ATR. If no packets are shown the sender has not sent any weather packets the latest 10 day(s).

<< 7 8 9 10 11 12 13 >>
Time Temp. Humidity Pressure Rain* Wind** Luminosity Snow
1788639935 29.44° C 32% 1022.4 hPa 0 mm - 662 W/m² -
1788639630 28.89° C 33% 1022.3 hPa 0 mm - 472 W/m² -
1788639326 29.44° C 33% 1022.5 hPa 0 mm - 292 W/m² -
1788639025 29.44° C 34% 1022.4 hPa 0 mm - 646 W/m² -
1788638721 28.89° C 33% 1022.4 hPa 0 mm - 830 W/m² -
1788638420 29.44° C 33% 1022.5 hPa 0 mm - 833 W/m² -
1788638115 30° C 34% 1022.8 hPa 0 mm - 755 W/m² -
1788637810 28.89° C 33% 1022.6 hPa 0 mm - 762 W/m² -
1788637510 28.33° C 34% 1022.6 hPa 0 mm - 741 W/m² -
1788637209 28.89° C 34% 1022.8 hPa 0 mm - 722 W/m² -
1788636904 28.33° C 35% 1022.8 hPa 0 mm - 187 W/m² -
1788636599 27.78° C 35% 1022.8 hPa 0 mm - 116 W/m² -
1788636294 28.33° C 35% 1022.6 hPa 0 mm - 323 W/m² -
1788635991 28.33° C 36% 1022.8 hPa 0 mm - 732 W/m² -
1788635690 28.89° C 34% 1023.1 hPa 0 mm - 728 W/m² -
1788635389 27.78° C 34% 1023 hPa 0 mm - 728 W/m² -
1788635087 28.89° C 34% 1023.1 hPa 0 mm - 693 W/m² -
1788634786 28.89° C 34% 1023.3 hPa 0 mm - 758 W/m² -
1788634481 27.78° C 36% 1023.3 hPa 0 mm - 467 W/m² -
1788634180 28.33° C 36% 1023.4 hPa 0 mm - 730 W/m² -
1788633880 27.78° C 38% 1023.6 hPa 0 mm - 744 W/m² -
1788633579 28.33° C 36% 1023.8 hPa 0 mm - 753 W/m² -
1788633273 28.33° C 35% 1023.5 hPa 0 mm - 716 W/m² -
1788632969 28.33° C 36% 1023.6 hPa 0 mm - 709 W/m² -
1788632667 27.22° C 37% 1023.8 hPa 0 mm - 707 W/m² -

* Rain latest hour (hover to see other rain measurements)
** Current wind speed in m/s (hover to see current wind gust speed)